"Pseudo-MPEC" for gb00850

Created 2026 Aug 7 15:35:12 UT using Find_Orb

Click here for an explanation of pseudo-MPECs

 
 Astrometry: 
     gb00850*KC2026 08 05.84791 20 43 10.05 +13 55 18.5    ~87EZ 20.2 GXNEOCPL51
     gb00850 KC2026 08 05.86722 20 43 09.46 +13 55 02.0    ~87EZ 19.3 GXNEOCPL51
     gb00850 KC2026 08 05.88643 20 43 08.91 +13 54 45.5    ~87EZ 19.9 GXNEOCPL51
     gb00850 KC2026 08 05.94405 20 43 07.29 +13 53 54.3    ~87EZ 19.8 GXNEOCPL51
     gb00850 KC2026 08 05.95183 20 43 07.09 +13 53 47.2    ~87EZ 19.1 GXNEOCPL51
     gb00850 KC2026 08 05.95961 20 43 06.91 +13 53 40.4    ~87EZ 19.4 GXNEOCPL51

Station data:
(L51) MARGO, Nauchnij  (N44.729397 E34.016400)  Ukraine.  Observer G. Borisov.
    0.4-m f/2.3 astrograph + CCD.

Orbital elements:  gb00850
   Perihelion 2026 Jul 15.332793 +/- 69.5 TT =  7:59:13.3 (JD 2461236.832793)
Epoch 2026 Aug  6.0 TT = JDT 2461258.5   Earth MOID: 0.7295      AutoNEOCP
M   5.738525906 +/- 19              (J2000 ecliptic)
n   0.264848442 +/- 0.2             Peri.  117.484538 +/- 80
a   2.401436459 +/- 1.21            Node   185.003394 +/- 39
e   0.30238150 +/- 0.198            Incl.   16.569434 +/- 9
P   3.72140                H 18.51  G  0.15   U 11.7  SR
q 1.675286477 +/- 0.62    Q 3.127586442 +/- 6.75
From 6 observations 2026 Aug. 5 (2.7 hr); mean residual 0".30
Residuals in arcseconds: 
260805 L51  .46+  .33-    260805 L51  .35-  .43+    260805 L51  .06-  .16-    
260805 L51  .23-  .07+    260805 L51  .32-  .05+    260805 L51  .49+  .06-    

Ephemerides (geocentric):
Date (UTC) HH   RA             Dec           delta  r     elong  mag " sig PA
---- --------  ------------   ------------  ------ ------ -----  --- --------
2026 08 07 16  20 42 25.877   +13 27 51.89  .72986 1.6839 149.4 19.9  300  88
2026 08 07 17  20 42 24.886   +13 27 12.73  .72985 1.6839 149.4 19.9  308  87
2026 08 07 18  20 42 23.897   +13 26 33.51  .72983 1.6840 149.5 19.9  315  86
2026 08 07 19  20 42 22.908   +13 25 54.23  .72982 1.6840 149.5 19.9  323  86
2026 08 07 20  20 42 21.920   +13 25 14.90  .72981 1.6840 149.5 19.9  330  85
2026 08 07 21  20 42 20.933   +13 24 35.51  .72980 1.6841 149.5 19.9  338  84
2026 08 07 22  20 42 19.947   +13 23 56.06  .72978 1.6841 149.5 19.9  345  83
2026 08 07 23  20 42 18.962   +13 23 16.56  .72977 1.6841 149.5 19.9  353  83
2026 08 08 00  20 42 17.977   +13 22 37.00  .72976 1.6842 149.5 19.9  361  82
2026 08 08 01  20 42 16.994   +13 21 57.39  .72975 1.6842 149.5 19.9  369  81
2026 08 08 02  20 42 16.011   +13 21 17.72  .72974 1.6842 149.6 19.9  377  80
2026 08 08 03  20 42 15.030   +13 20 37.99  .72973 1.6843 149.6 19.9  386  78
2026 08 08 04  20 42 14.049   +13 19 58.20  .72972 1.6843 149.6 19.9  394  77
2026 08 08 05  20 42 13.069   +13 19 18.36  .72971 1.6843 149.6 19.9  403  76
2026 08 08 06  20 42 12.090   +13 18 38.47  .72970 1.6844 149.6 19.9  412  75
2026 08 08 07  20 42 11.112   +13 17 58.52  .72969 1.6844 149.6 19.9  421  73
2026 08 08 08  20 42 10.135   +13 17 18.51  .72968 1.6844 149.6 19.9  431  72
2026 08 08 09  20 42 09.159   +13 16 38.45  .72967 1.6844 149.6 19.9  441  70
2026 08 08 10  20 42 08.184   +13 15 58.33  .72967 1.6845 149.6 19.9  451  68
2026 08 08 11  20 42 07.210   +13 15 18.15  .72966 1.6845 149.7 19.9  462  66
2026 08 08 12  20 42 06.237   +13 14 37.92  .72965 1.6845 149.7 19.9  473  64
2026 08 08 13  20 42 05.264   +13 13 57.63  .72964 1.6846 149.7 19.9  485  62
2026 08 08 14  20 42 04.293   +13 13 17.29  .72963 1.6846 149.7 19.9  498  60
2026 08 08 15  20 42 03.323   +13 12 36.89  .72963 1.6846 149.7 19.9  511  58
2026 08 08 16  20 42 02.354   +13 11 56.44  .72962 1.6847 149.7 19.9  525  56
2026 08 08 17  20 42 01.385   +13 11 15.93  .72962 1.6847 149.7 19.9  539  54
2026 08 08 18  20 42 00.418   +13 10 35.37  .72961 1.6847 149.7 19.9  555  52
2026 08 08 19  20 41 59.452   +13 09 54.75  .72960 1.6848 149.8 19.9  571  50
2026 08 08 20  20 41 58.487   +13 09 14.08  .72960 1.6848 149.8 19.9  588  48
2026 08 08 21  20 41 57.523   +13 08 33.35  .72959 1.6848 149.8 19.9  606  46
2026 08 08 22  20 41 56.560   +13 07 52.56  .72959 1.6849 149.8 19.9  625  44
2026 08 08 23  20 41 55.598   +13 07 11.72  .72958 1.6849 149.8 19.9  645  42
2026 08 09 00  20 41 54.637   +13 06 30.83  .72958 1.6849 149.8 19.9  666  41
2026 08 09 01  20 41 53.677   +13 05 49.88  .72958 1.6850 149.8 19.9  688  39
2026 08 09 02  20 41 52.718   +13 05 08.88  .72957 1.6850 149.8 19.9  711  38
2026 08 09 03  20 41 51.760   +13 04 27.82  .72957 1.6850 149.8 19.9  735  36
2026 08 09 04  20 41 50.803   +13 03 46.71  .72956 1.6851 149.8 19.9  760  35
2026 08 09 05  20 41 49.848   +13 03 05.54  .72956 1.6851 149.9 19.9  786  34
2026 08 09 06  20 41 48.893   +13 02 24.32  .72956 1.6851 149.9 19.9  814  33
2026 08 09 07  20 41 47.940   +13 01 43.05  .72956 1.6852 149.9 19.9  842  32
2026 08 09 08  20 41 46.987   +13 01 01.72  .72956 1.6852 149.9 19.9  872  31
2026 08 09 09  20 41 46.036   +13 00 20.33  .72955 1.6852 149.9 19.9  904  30
2026 08 09 10  20 41 45.086   +12 59 38.89  .72955 1.6853 149.9 19.9  936  29
2026 08 09 11  20 41 44.137   +12 58 57.40  .72955 1.6853 149.9 19.9  971  28
2026 08 09 12  20 41 43.189   +12 58 15.85  .72955 1.6853 149.9 19.9 1006  27
2026 08 09 13  20 41 42.242   +12 57 34.25  .72955 1.6854 149.9 19.9 1043  27
2026 08 09 14  20 41 41.297   +12 56 52.60  .72955 1.6854 150.0 19.9 1082  26
2026 08 09 15  20 41 40.352   +12 56 10.89  .72955 1.6854 150.0 19.9 1123  25